User: anonymous   Login
Location: Kennington
(51.1500°N, 0.8833°E)
Time: 03:23:57
(UTC+00:00)
Language:

ADEOS II - Orbit

View from above orbital plane
View from above orbital plane
View from above satellite
View from above satellite

Ground track
Ground track

The orbit data is extracted from the following two-line orbital elements,

1 27597U 02056A   20338.60488227  .00000082  00000-0  51019-4 0  9996
2 27597  98.5412 282.0912 0000858 137.8816 222.2432 14.27472314935942
Epoch (UTC): 03 December 2020 14:31:01
Eccentricity: 0.0000858
inclination: 98.5412°
perigee height: 799 km
apogee height: 801 km
right ascension of ascending node: 282.0912°
argument of perigee: 137.8816°
revolutions per day: 14.27472314
mean anomaly at epoch: 222.2432°
orbit number at epoch: 93594

The dashed part of the orbit path shows where the satellite is in the earth's shadow,  

DLR